TimeEST,TemperatureF,Dew PointF,Humidity,Sea Level PressureIn,VisibilityMPH,Wind Direction,Wind SpeedMPH,Gust SpeedMPH,PrecipitationIn,Events,Conditions,WindDirDegrees,DateUTC
12:15 AM,33.8,24.8,70,30.11,10.0,NNE,10.4,17.3,N/A,,Overcast,30,2013-03-07 05:15:00
12:55 AM,32.0,24.8,75,30.12,10.0,NE,9.2,16.1,N/A,,Overcast,50,2013-03-07 05:55:00
1:15 AM,32.0,24.8,75,30.13,10.0,NE,8.1,-,N/A,,Overcast,50,2013-03-07 06:15:00
1:35 AM,32.0,24.8,75,30.12,10.0,NNE,8.1,-,N/A,,Overcast,20,2013-03-07 06:35:00
2:15 AM,32.0,24.8,75,30.10,10.0,NNE,8.1,-,N/A,,Overcast,20,2013-03-07 07:15:00
2:35 AM,32.0,24.8,75,30.10,10.0,North,11.5,-,N/A,,Overcast,10,2013-03-07 07:35:00
2:55 AM,30.2,24.8,80,30.09,10.0,North,12.7,-,N/A,,Overcast,10,2013-03-07 07:55:00
3:15 AM,30.2,24.8,80,30.09,10.0,North,11.5,-,N/A,,Overcast,10,2013-03-07 08:15:00
3:35 AM,30.2,24.8,80,30.09,10.0,NNE,13.8,-,N/A,,Overcast,20,2013-03-07 08:35:00
3:55 AM,30.2,24.8,80,30.09,10.0,NNE,15.0,19.6,N/A,,Overcast,20,2013-03-07 08:55:00
4:35 AM,30.2,24.8,80,30.09,10.0,NNE,16.1,21.9,N/A,,Overcast,20,2013-03-07 09:35:00
4:55 AM,30.2,23.0,75,30.10,10.0,NNE,12.7,20.7,N/A,,Overcast,30,2013-03-07 09:55:00
5:15 AM,30.2,23.0,75,30.10,10.0,NNE,15.0,23.0,N/A,,Overcast,30,2013-03-07 10:15:00
5:35 AM,30.2,23.0,75,30.09,10.0,NE,15.0,20.7,N/A,,Overcast,40,2013-03-07 10:35:00
5:55 AM,30.2,23.0,75,30.09,10.0,NNE,12.7,23.0,N/A,,Overcast,20,2013-03-07 10:55:00
6:15 AM,30.2,21.2,69,30.09,10.0,North,16.1,-,N/A,,Overcast,10,2013-03-07 11:15:00
6:35 AM,30.2,21.2,69,30.10,10.0,North,13.8,21.9,N/A,,Overcast,10,2013-03-07 11:35:00
6:55 AM,30.2,23.0,75,30.10,10.0,North,16.1,19.6,N/A,,Overcast,10,2013-03-07 11:55:00
7:15 AM,30.2,23.0,75,30.10,10.0,North,13.8,-,N/A,,Overcast,10,2013-03-07 12:15:00
7:35 AM,30.2,23.0,75,30.11,7.0,NNE,13.8,20.7,N/A,,Overcast,20,2013-03-07 12:35:00
7:55 AM,30.2,23.0,75,30.11,5.0,North,11.5,-,N/A,,Overcast,10,2013-03-07 12:55:00
8:15 AM,30.2,24.8,80,30.11,2.5,North,13.8,-,N/A,,Overcast,10,2013-03-07 13:15:00
8:35 AM,30.2,24.8,80,30.11,7.0,North,13.8,17.3,N/A,,Overcast,360,2013-03-07 13:35:00
8:55 AM,32.0,24.8,75,30.10,9.0,NNE,12.7,21.9,N/A,,Overcast,30,2013-03-07 13:55:00
9:15 AM,32.0,23.0,69,30.10,10.0,North,11.5,-,N/A,,Overcast,10,2013-03-07 14:15:00
9:35 AM,33.8,23.0,65,30.10,10.0,NNE,12.7,18.4,N/A,,Overcast,20,2013-03-07 14:35:00
9:55 AM,33.8,23.0,65,30.10,10.0,NNE,11.5,-,N/A,,Overcast,20,2013-03-07 14:55:00
10:15 AM,33.8,23.0,65,30.09,10.0,NNE,12.7,-,N/A,,Overcast,30,2013-03-07 15:15:00
10:35 AM,33.8,23.0,65,30.09,10.0,NNE,15.0,19.6,N/A,,Overcast,20,2013-03-07 15:35:00
10:55 AM,33.8,24.8,70,30.09,10.0,NNE,16.1,20.7,N/A,,Overcast,20,2013-03-07 15:55:00
11:15 AM,35.6,23.0,60,30.09,10.0,NNE,11.5,-,N/A,,Overcast,30,2013-03-07 16:15:00
11:35 AM,35.6,23.0,60,30.09,10.0,North,13.8,23.0,N/A,,Overcast,10,2013-03-07 16:35:00
11:55 AM,35.6,23.0,60,30.09,10.0,North,13.8,-,N/A,,Overcast,10,2013-03-07 16:55:00
12:15 PM,33.8,24.8,70,30.10,5.0,North,13.8,-,N/A,,Overcast,10,2013-03-07 17:15:00
12:35 PM,33.8,26.6,75,30.09,2.5,NNE,12.7,-,N/A,,Overcast,20,2013-03-07 17:35:00
12:55 PM,32.0,26.6,80,30.09,1.8,North,10.4,-,N/A,,Overcast,10,2013-03-07 17:55:00
1:15 PM,32.0,28.4,87,30.08,2.0,North,12.7,-,N/A,,Overcast,10,2013-03-07 18:15:00
1:35 PM,33.8,28.4,81,30.08,2.0,NNE,10.4,-,N/A,,Overcast,20,2013-03-07 18:35:00
1:55 PM,33.8,28.4,81,30.07,2.0,North,13.8,-,N/A,,Overcast,10,2013-03-07 18:55:00
2:15 PM,33.8,28.4,81,30.07,2.0,North,9.2,-,N/A,,Overcast,10,2013-03-07 19:15:00
2:35 PM,33.8,28.4,81,30.08,4.0,North,12.7,-,N/A,,Overcast,360,2013-03-07 19:35:00
2:55 PM,33.8,28.4,81,30.08,3.0,North,9.2,-,N/A,,Overcast,10,2013-03-07 19:55:00
3:15 PM,33.8,28.4,81,30.08,2.5,NNE,8.1,-,N/A,,Overcast,20,2013-03-07 20:15:00
3:35 PM,33.8,28.4,81,30.08,3.0,NNE,9.2,-,N/A,,Overcast,30,2013-03-07 20:35:00
3:55 PM,33.8,28.4,81,30.08,1.2,NE,4.6,-,N/A,,Overcast,40,2013-03-07 20:55:00
4:15 PM,33.8,28.4,81,30.08,1.8,NE,3.5,-,N/A,,Overcast,50,2013-03-07 21:15:00
4:35 PM,33.8,28.4,81,30.08,1.5,NNE,3.5,-,N/A,,Overcast,30,2013-03-07 21:35:00
4:55 PM,33.8,30.2,87,30.08,2.5,NNE,4.6,-,0.01,,Overcast,30,2013-03-07 21:55:00
5:15 PM,33.8,30.2,87,30.08,2.5,North,5.8,-,N/A,,Overcast,10,2013-03-07 22:15:00
5:35 PM,33.8,30.2,87,30.08,3.0,North,6.9,-,N/A,,Overcast,10,2013-03-07 22:35:00
5:55 PM,33.8,30.2,87,30.09,1.0,North,5.8,-,N/A,,Overcast,360,2013-03-07 22:55:00
6:15 PM,33.8,30.2,87,30.09,2.5,North,6.9,-,0.01,,Overcast,350,2013-03-07 23:15:00
6:35 PM,33.8,30.2,87,30.08,5.0,North,8.1,-,0.01,,Overcast,360,2013-03-07 23:35:00
6:55 PM,33.8,30.2,87,30.08,4.0,North,6.9,-,0.01,,Overcast,10,2013-03-07 23:55:00
7:15 PM,33.8,28.4,81,30.08,5.0,North,6.9,-,N/A,,Overcast,10,2013-03-08 00:15:00
7:35 PM,33.8,28.4,81,30.08,9.0,North,5.8,-,N/A,,Mostly Cloudy,10,2013-03-08 00:35:00
7:55 PM,33.8,28.4,81,30.08,10.0,North,8.1,-,N/A,,Overcast,10,2013-03-08 00:55:00
8:16 PM,33.8,28.4,81,30.08,8.0,North,9.2,-,N/A,,Overcast,10,2013-03-08 01:16:00
8:35 PM,33.8,28.4,81,30.08,7.0,NNE,8.1,-,N/A,,Overcast,20,2013-03-08 01:35:00
8:55 PM,32.0,28.4,87,30.08,5.0,NNE,5.8,-,N/A,,Overcast,20,2013-03-08 01:55:00
9:15 PM,32.0,28.4,87,30.07,7.0,North,6.9,-,N/A,,Overcast,10,2013-03-08 02:15:00
9:35 PM,32.0,28.4,87,30.07,3.0,North,5.8,-,N/A,,Overcast,360,2013-03-08 02:35:00
9:55 PM,32.0,28.4,87,30.06,2.0,North,5.8,-,0.01,,Overcast,360,2013-03-08 02:55:00
10:15 PM,32.0,28.4,87,30.06,2.5,North,6.9,-,N/A,,Overcast,360,2013-03-08 03:15:00
10:35 PM,30.2,28.4,93,30.06,5.0,North,6.9,-,N/A,,Overcast,360,2013-03-08 03:35:00
10:55 PM,32.0,28.4,87,30.05,10.0,North,6.9,-,N/A,,Overcast,360,2013-03-08 03:55:00
11:35 PM,30.2,28.4,93,30.05,3.0,North,5.8,-,N/A,,Overcast,10,2013-03-08 04:35:00
11:55 PM,30.2,26.6,86,30.05,4.0,North,8.1,-,N/A,,Overcast,10,2013-03-08 04:55:00